TimeCST,TemperatureF,Dew PointF,Humidity,Sea Level PressureIn,VisibilityMPH,Wind Direction,Wind SpeedMPH,Gust SpeedMPH,PrecipitationIn,Events,Conditions,WindDirDegrees,DateUTC
12:42 AM,51.8,44.6,76,30.00,10.0,WNW,16.1,-,N/A,,Partly Cloudy,290,2011-11-20 06:42:00
1:56 AM,43.9,41.0,90,30.06,10.0,WNW,21.9,-,N/A,,Scattered Clouds,300,2011-11-20 07:56:00
2:06 AM,42.8,39.2,87,30.05,10.0,WNW,19.6,-,N/A,,Mostly Cloudy,300,2011-11-20 08:06:00
2:15 AM,42.8,39.2,87,30.05,10.0,WNW,15.0,-,N/A,,Overcast,300,2011-11-20 08:15:00
2:56 AM,39.9,36.0,86,30.09,10.0,WNW,19.6,-,N/A,,Overcast,300,2011-11-20 08:56:00
3:14 AM,39.2,33.8,81,30.08,10.0,NW,16.1,-,N/A,,Scattered Clouds,320,2011-11-20 09:14:00
3:56 AM,37.9,32.9,82,30.12,10.0,NW,12.7,-,N/A,,Mostly Cloudy,310,2011-11-20 09:56:00
4:49 AM,37.4,33.8,87,30.12,10.0,NW,10.4,-,N/A,,Scattered Clouds,320,2011-11-20 10:49:00
4:56 AM,36.9,32.9,86,30.14,10.0,NW,11.5,-,N/A,,Partly Cloudy,310,2011-11-20 10:56:00
5:56 AM,36.9,32.9,86,30.18,10.0,NW,6.9,-,N/A,,Partly Cloudy,310,2011-11-20 11:56:00
6:56 AM,36.0,32.9,89,30.21,10.0,NNW,6.9,-,N/A,,Partly Cloudy,330,2011-11-20 12:56:00
7:11 AM,37.4,33.8,87,30.19,10.0,NNW,9.2,-,N/A,,Mostly Cloudy,340,2011-11-20 13:11:00
7:56 AM,37.9,34.9,89,30.20,10.0,North,12.7,-,N/A,,Clear,10,2011-11-20 13:56:00
8:29 AM,39.2,35.6,87,30.21,10.0,North,10.4,-,N/A,,Mostly Cloudy,360,2011-11-20 14:29:00
8:56 AM,39.9,36.0,86,30.24,10.0,North,9.2,-,N/A,,Overcast,360,2011-11-20 14:56:00
9:56 AM,41.9,36.9,82,30.24,10.0,NNW,13.8,-,N/A,,Clear,340,2011-11-20 15:56:00
10:56 AM,45.0,37.9,76,30.22,10.0,NE,11.5,-,N/A,,Clear,40,2011-11-20 16:56:00
11:56 AM,45.9,36.9,71,30.23,10.0,North,11.5,-,N/A,,Clear,350,2011-11-20 17:56:00
12:56 PM,45.9,36.9,71,30.22,10.0,NNE,11.5,-,N/A,,Scattered Clouds,30,2011-11-20 18:56:00
1:19 PM,46.4,37.4,71,30.22,10.0,NNE,12.7,-,N/A,,Mostly Cloudy,30,2011-11-20 19:19:00
2:56 PM,45.0,36.9,73,30.25,10.0,NNE,15.0,-,N/A,,Mostly Cloudy,30,2011-11-20 20:56:00
3:56 PM,45.0,36.9,73,30.28,10.0,NNE,12.7,-,N/A,,Mostly Cloudy,30,2011-11-20 21:56:00
5:56 PM,43.9,36.9,76,30.27,10.0,NE,15.0,-,N/A,,Clear,50,2011-11-20 23:56:00
6:56 PM,43.0,36.9,79,30.29,10.0,ENE,15.0,-,N/A,,Mostly Cloudy,60,2011-11-21 00:56:00
7:56 PM,41.9,36.9,82,30.28,10.0,ENE,17.3,-,N/A,,Scattered Clouds,60,2011-11-21 01:56:00
8:06 PM,42.8,37.4,81,30.25,10.0,ENE,15.0,-,N/A,,Mostly Cloudy,60,2011-11-21 02:06:00
8:08 PM,42.8,37.4,81,30.25,10.0,ENE,15.0,-,N/A,Thunderstorm,Mostly Cloudy,60,2011-11-21 02:08:00
8:56 PM,41.9,36.9,82,30.31,10.0,NE,15.0,-,N/A,Thunderstorm,Overcast,40,2011-11-21 02:56:00
8:58 PM,42.8,37.4,81,30.28,10.0,NE,12.7,-,N/A,,Mostly Cloudy,40,2011-11-21 02:58:00
9:56 PM,41.9,37.9,86,30.29,10.0,ENE,13.8,-,0.00,Rain,Light Rain,60,2011-11-21 03:56:00
10:56 PM,41.9,36.9,82,30.27,10.0,ENE,12.7,-,0.00,,Overcast,60,2011-11-21 04:56:00
11:56 PM,41.9,36.9,82,30.27,10.0,ENE,15.0,-,N/A,,Overcast,60,2011-11-21 05:56:00